• In Deutschland
  • Länderverzeichnis
  • Für 7 Tage
  • Wassertemperatur
  • Satellitenkarten
  • Wetterkarte
  • Widgets
  • user-avatar
    Anmelden

    Stündliche Wetter Pizunda

    Heute, 22 Oktober, Montag

    Zeit Temperatur Niederschläge Wind Luftdruck Luftfeuchtigkeit
    00:00 +20°C° 0.3 mm 2 m/S 760 mmHg 65%
    01:00 +20°C° 0.6 mm 2 m/S 760 mmHg 67%
    02:00 +19°C° 0.6 mm 2 m/S 760 mmHg 70%
    03:00 +19°C° 0.6 mm 2 m/S 761 mmHg 73%
    04:00 +19°C° 1 mm 2 m/S 761 mmHg 75%
    05:00 +20°C° 1 mm 1 m/S 761 mmHg 77%
    06:00 +19°C° 1 mm 1 m/S 761 mmHg 80%
    07:00 +18°C° 0.9 mm 2 m/S 761 mmHg 81%
    08:00 +18°C° 0.9 mm 3 m/S 762 mmHg 83%
    09:00 +18°C° 0.9 mm 4 m/S 762 mmHg 84%
    10:00 +19°C° 0.6 mm 4 m/S 762 mmHg 82%
    11:00 +20°C° 0.6 mm 4 m/S 762 mmHg 81%
    12:00 +20°C° 0.6 mm 4 m/S 763 mmHg 79%
    13:00 +20°C° 0.5 mm 4 m/S 763 mmHg 79%
    14:00 +20°C° 0.5 mm 4 m/S 763 mmHg 79%
    15:00 +21°C° 0.5 mm 4 m/S 763 mmHg 78%
    16:00 +20°C° 0.4 mm 4 m/S 763 mmHg 81%
    17:00 +19°C° 0.4 mm 4 m/S 763 mmHg 84%
    18:00 +18°C° 0.4 mm 3 m/S 763 mmHg 87%
    19:00 +18°C° 0.6 mm 3 m/S 763 mmHg 86%
    20:00 +18°C° 0.6 mm 3 m/S 763 mmHg 86%
    21:00 +17°C° 0.6 mm 3 m/S 764 mmHg 85%
    22:00 +17°C° 0.3 mm 3 m/S 763 mmHg 84%
    23:00 +17°C° 0.3 mm 3 m/S 763 mmHg 83%

    Morgen, 23 Oktober, Dienstag

    Zeit Temperatur Niederschläge Wind Luftdruck Luftfeuchtigkeit
    00:00 +16°C° 0.3 mm 2 m/S 763 mmHg 82%
    01:00 +16°C° 0.1 mm 2 m/S 763 mmHg 81%
    02:00 +16°C° 0.1 mm 2 m/S 763 mmHg 80%
    03:00 +16°C° 0.1 mm 2 m/S 763 mmHg 79%
    04:00 +16°C° 0.2 mm 2 m/S 763 mmHg 77%
    05:00 +16°C° 0.2 mm 2 m/S 763 mmHg 76%
    06:00 +16°C° 0.2 mm 2 m/S 762 mmHg 75%
    07:00 +17°C° 0.3 mm 2 m/S 763 mmHg 70%
    08:00 +19°C° 0.3 mm 2 m/S 763 mmHg 66%
    09:00 +20°C° 0.3 mm 2 m/S 763 mmHg 61%
    10:00 +21°C° 0.3 mm 2 m/S 762 mmHg 62%
    11:00 +21°C° 0.3 mm 2 m/S 762 mmHg 62%
    12:00 +23°C° 0.3 mm 2 m/S 762 mmHg 63%
    13:00 +23°C° 0.4 mm 2 m/S 762 mmHg 63%
    14:00 +23°C° 0.4 mm 2 m/S 761 mmHg 64%
    15:00 +23°C° 0.4 mm 2 m/S 761 mmHg 65%
    16:00 +20°C° 0.2 mm 2 m/S 761 mmHg 71%
    17:00 +20°C° 0.2 mm 1 m/S 761 mmHg 77%
    18:00 +19°C° 0.2 mm 1 m/S 761 mmHg 83%
    19:00 +18°C° 0.1 mm 1 m/S 761 mmHg 81%
    20:00 +18°C° 0.1 mm 1 m/S 761 mmHg 79%
    21:00 +18°C° 0.1 mm 1 m/S 761 mmHg 77%
    22:00 +18°C° 0.1 mm 1 m/S 760 mmHg 77%
    23:00 +17°C° 0.1 mm 2 m/S 760 mmHg 77%

    übermorgen, 24 Oktober, Mittwoch

    Zeit Temperatur Niederschläge Wind Luftdruck Luftfeuchtigkeit
    00:00 +17°C° 0.1 mm 2 m/S 760 mmHg 77%
    01:00 +17°C° 0.1 mm 2 m/S 759 mmHg 77%
    02:00 +17°C° 0.1 mm 2 m/S 759 mmHg 78%
    03:00 +17°C° 0.1 mm 2 m/S 758 mmHg 78%
    04:00 +17°C° 0.1 mm 3 m/S 758 mmHg 77%
    05:00 +17°C° 0.1 mm 4 m/S 757 mmHg 76%
    06:00 +17°C° 0.1 mm 4 m/S 757 mmHg 76%
    07:00 +18°C° 0.1 mm 4 m/S 756 mmHg 74%
    08:00 +17°C° 0.1 mm 5 m/S 756 mmHg 72%
    09:00 +19°C° 0.1 mm 5 m/S 756 mmHg 69%
    10:00 +20°C° 0.1 mm 6 m/S 755 mmHg 68%
    11:00 +21°C° 0.1 mm 6 m/S 754 mmHg 66%
    12:00 +22°C° 0.1 mm 6 m/S 754 mmHg 65%
    13:00 +22°C° 0.1 mm 6 m/S 753 mmHg 65%
    14:00 +21°C° 0.1 mm 5 m/S 752 mmHg 66%
    15:00 +21°C° 0.1 mm 5 m/S 752 mmHg 66%
    16:00 +21°C° 0.2 mm 5 m/S 751 mmHg 69%
    17:00 +20°C° 0.2 mm 5 m/S 751 mmHg 72%
    18:00 +19°C° 0.2 mm 5 m/S 751 mmHg 74%
    19:00 +19°C° 0.7 mm 5 m/S 750 mmHg 75%
    20:00 +17°C° 0.7 mm 6 m/S 750 mmHg 76%
    21:00 +17°C° 0.7 mm 6 m/S 750 mmHg 76%
    22:00 +17°C° 0.8 mm 7 m/S 749 mmHg 76%
    23:00 +18°C° 0.8 mm 8 m/S 749 mmHg 77%

    25 Oktober, Donnerstag

    Zeit Temperatur Niederschläge Wind Luftdruck Luftfeuchtigkeit
    00:00 +18°C° 0.8 mm 8 m/S 749 mmHg 77%
    01:00 +18°C° 1.6 mm 8 m/S 749 mmHg 80%
    02:00 +17°C° 1.6 mm 8 m/S 748 mmHg 82%
    03:00 +17°C° 1.6 mm 7 m/S 748 mmHg 85%
    04:00 +17°C° 3.8 mm 7 m/S 748 mmHg 87%
    05:00 +16°C° 3.8 mm 6 m/S 748 mmHg 90%
    06:00 +16°C° 3.8 mm 6 m/S 748 mmHg 92%
    07:00 +16°C° 6.5 mm 6 m/S 748 mmHg 92%
    08:00 +15°C° 6.5 mm 7 m/S 749 mmHg 93%
    09:00 +15°C° 6.5 mm 7 m/S 749 mmHg 93%
    10:00 +13°C° 3.3 mm 8 m/S 750 mmHg 93%
    11:00 +13°C° 3.3 mm 9 m/S 751 mmHg 93%
    12:00 +12°C° 3.3 mm 10 m/S 751 mmHg 93%
    13:00 +12°C° 0.9 mm 8 m/S 752 mmHg 91%
    14:00 +11°C° 0.9 mm 7 m/S 753 mmHg 89%
    15:00 +11°C° 0.9 mm 6 m/S 753 mmHg 87%
    16:00 +12°C° 0.9 mm 5 m/S 754 mmHg 88%
    17:00 +10°C° 0.9 mm 5 m/S 755 mmHg 89%
    18:00 +10°C° 0.9 mm 4 m/S 755 mmHg 91%
    19:00 +10°C° 0.9 mm 4 m/S 755 mmHg 91%
    20:00 +10°C° 0.9 mm 4 m/S 756 mmHg 91%
    21:00 +10°C° 0.9 mm 4 m/S 756 mmHg 92%
    22:00 +10°C° 1.1 mm 4 m/S 757 mmHg 92%
    23:00 +10°C° 1.1 mm 4 m/S 757 mmHg 92%

    26 Oktober, Freitag

    Zeit Temperatur Niederschläge Wind Luftdruck Luftfeuchtigkeit
    00:00 +10°C° 1.1 mm 3 m/S 757 mmHg 92%
    01:00 +10°C° 1.1 mm 3 m/S 757 mmHg 92%
    02:00 +10°C° 1.1 mm 3 m/S 758 mmHg 92%
    03:00 +10°C° 1.1 mm 3 m/S 758 mmHg 92%
    04:00 +9°C° 0.9 mm 3 m/S 758 mmHg 92%
    05:00 +9°C° 0.9 mm 3 m/S 758 mmHg 91%
    06:00 +9°C° 0.9 mm 3 m/S 759 mmHg 91%
    07:00 +9°C° 0.8 mm 3 m/S 759 mmHg 89%
    08:00 +10°C° 0.8 mm 3 m/S 760 mmHg 88%
    09:00 +10°C° 0.8 mm 3 m/S 760 mmHg 87%
    10:00 +11°C° 0.7 mm 3 m/S 761 mmHg 84%
    11:00 +11°C° 0.7 mm 3 m/S 761 mmHg 81%
    12:00 +12°C° 0.7 mm 3 m/S 761 mmHg 78%
    13:00 +12°C° 0.4 mm 3 m/S 762 mmHg 77%
    14:00 +13°C° 0.4 mm 2 m/S 762 mmHg 76%
    15:00 +13°C° 0.4 mm 2 m/S 763 mmHg 75%
    16:00 +12°C° 0 mm 2 m/S 763 mmHg 76%
    17:00 +9°C° 0 mm 2 m/S 764 mmHg 77%
    18:00 +8°C° 0 mm 2 m/S 765 mmHg 79%
    19:00 +8°C° 0 mm 2 m/S 765 mmHg 78%
    20:00 +8°C° 0 mm 2 m/S 765 mmHg 77%
    21:00 +8°C° 0 mm 2 m/S 766 mmHg 77%
    22:00 +8°C° 0.1 mm 2 m/S 766 mmHg 77%
    23:00 +9°C° 0.1 mm 2 m/S 767 mmHg 77%

    27 Oktober, Samstag

    Zeit Temperatur Niederschläge Wind Luftdruck Luftfeuchtigkeit
    00:00 +9°C° 0.1 mm 3 m/S 767 mmHg 76%
    01:00 +9°C° 0.2 mm 3 m/S 767 mmHg 77%
    02:00 +9°C° 0.2 mm 3 m/S 768 mmHg 77%
    03:00 +9°C° 0.2 mm 3 m/S 768 mmHg 78%
    04:00 +10°C° 0.2 mm 4 m/S 768 mmHg 78%
    05:00 +10°C° 0.2 mm 4 m/S 768 mmHg 79%
    06:00 +10°C° 0.2 mm 5 m/S 769 mmHg 80%
    07:00 +10°C° 0.1 mm 5 m/S 769 mmHg 79%
    08:00 +11°C° 0.1 mm 6 m/S 769 mmHg 79%
    09:00 +13°C° 0.1 mm 6 m/S 769 mmHg 79%
    10:00 +13°C° 0.1 mm 6 m/S 769 mmHg 78%
    11:00 +14°C° 0.1 mm 6 m/S 769 mmHg 77%
    12:00 +15°C° 0.1 mm 6 m/S 769 mmHg 77%
    13:00 +15°C° 0 mm 6 m/S 769 mmHg 77%
    14:00 +15°C° 0 mm 5 m/S 769 mmHg 78%
    15:00 +15°C° 0 mm 5 m/S 768 mmHg 78%
    16:00 +14°C° 0 mm 5 m/S 769 mmHg 80%
    17:00 +13°C° 0 mm 5 m/S 769 mmHg 82%
    18:00 +12°C° 0 mm 5 m/S 769 mmHg 84%
    19:00 +12°C° 0 mm 5 m/S 769 mmHg 80%
    20:00 +10°C° 0 mm 5 m/S 769 mmHg 77%
    21:00 +10°C° 0 mm 5 m/S 769 mmHg 74%
    22:00 +10°C° 0 mm 5 m/S 769 mmHg 73%
    23:00 +10°C° 0 mm 5 m/S 769 mmHg 71%

    28 Oktober, Sonntag

    Zeit Temperatur Niederschläge Wind Luftdruck Luftfeuchtigkeit
    00:00 +10°C° 0 mm 6 m/S 769 mmHg 70%
    01:00 +10°C° 0 mm 6 m/S 769 mmHg 69%
    02:00 +10°C° 0 mm 6 m/S 769 mmHg 68%
    03:00 +10°C° 0 mm 6 m/S 768 mmHg 66%
    04:00 +10°C° 0 mm 6 m/S 768 mmHg 65%
    05:00 +10°C° 0 mm 6 m/S 768 mmHg 63%
    06:00 +11°C° 0 mm 6 m/S 768 mmHg 61%
    07:00 +13°C° 0 mm 5 m/S 768 mmHg 62%
    08:00 +15°C° 0 mm 5 m/S 768 mmHg 64%
    09:00 +16°C° 0 mm 5 m/S 768 mmHg 65%
    10:00 +19°C° 0 mm 5 m/S 768 mmHg 64%
    11:00 +20°C° 0 mm 5 m/S 768 mmHg 63%
    12:00 +22°C° 0 mm 4 m/S 768 mmHg 62%
    13:00 +22°C° 0 mm 4 m/S 768 mmHg 63%
    14:00 +22°C° 0 mm 3 m/S 767 mmHg 64%
    15:00 +22°C° 0 mm 3 m/S 767 mmHg 65%
    16:00 +20°C° 0 mm 3 m/S 767 mmHg 65%
    17:00 +18°C° 0 mm 3 m/S 767 mmHg 65%
    18:00 +16°C° 0 mm 3 m/S 767 mmHg 64%
    19:00 +16°C° 0 mm 3 m/S 767 mmHg 60%
    20:00 +14°C° 0 mm 4 m/S 767 mmHg 56%
    21:00 +14°C° 0 mm 4 m/S 767 mmHg 52%
    22:00 +14°C° 0 mm 4 m/S 767 mmHg 50%
    23:00 +14°C° 0 mm 4 m/S 767 mmHg 48%
    Mehr zeigen